FW5207 Weather Reports


Display with metric or nautical units.
time (UTC)temp
F
wind
direction
speed
MPH
gust
MPH
rain 1hr
in
rain 24hr
in
rain mn
in
humidity
%
barometer
mb
20260505061538 47 298 4.0 14.0 0.00 0.09 0.00 82 1007.6
20260505060029 47 13 4.0 12.0 0.00 0.09 0.00 82 1007.3
20260505054525 47 350 6.0 14.0 0.00 0.11 0.00 81 1007.0
20260505053022 47 283 4.0 15.0 0.00 0.11 0.00 81 1006.8
20260505051518 47 273 3.0 14.0 0.00 0.11 0.00 80 1006.6
20260505041509 48 115 5.0 14.0 0.00 0.14 0.00 79 1005.6
20260505040008 49 294 4.0 13.0 0.00 0.14 0.00 78 1005.5
20260505034503 49 322 6.0 18.0 0.00 0.15 0.00 77 1005.2
20260505033100 49 283 4.0 13.0 0.00 0.15 0.00 76 1005.1
20260505031606 49 265 3.0 17.0 0.00 0.15 0.00 76 1004.7
20260505030053 50 264 4.0 21.0 0.00 0.15 0.00 75 1004.5
20260505024552 50 266 6.0 15.0 0.00 0.15 0.15 74 1004.3
20260505023057 50 271 6.0 15.0 0.00 0.15 0.15 73 1004.2
20260505021550 50 317 4.0 16.0 0.00 0.15 0.15 72 1004.1
20260505020048 50 315 5.0 19.0 0.00 0.15 0.15 71 1003.9
20260505014548 50 258 8.0 15.0 0.00 0.17 0.15 71 1003.7
20260505013047 50 239 6.0 13.0 0.00 0.17 0.15 72 1003.8
20260505011547 50 256 4.0 18.0 0.00 0.17 0.15 72 1003.9
20260505010047 50 329 6.0 15.0 0.00 0.17 0.15 70 1003.7
20260505004545 50 154 3.0 15.0 0.00 0.24 0.15 68 1003.7
20260505003043 51 159 4.0 20.0 0.00 0.24 0.15 66 1003.4
20260505001549 51 271 9.0 21.0 0.00 0.24 0.15 64 1003.0
20260505000047 51 251 6.0 17.0 0.00 0.24 0.15 61 1002.9
20260504234541 51 250 5.0 13.0 0.00 0.41 0.15 62 1002.7
20260504233038 50 284 2.0 11.0 0.00 0.41 0.15 63 1002.4
20260504231554 51 340 5.0 12.0 0.00 0.41 0.15 62 1002.4
20260504230036 51 176 4.0 9.0 0.00 0.41 0.15 61 1002.2
20260504224538 52 242 6.0 15.0 0.00 0.53 0.15 59 1002.1
20260504223033 52 288 5.0 18.0 0.00 0.53 0.15 59 1001.9
20260504221533 53 209 5.0 19.0 0.00 0.53 0.15 57 1001.6
20260504220034 54 298 6.0 20.0 0.00 0.53 0.15 55 1001.7
20260504214530 54 215 8.0 18.0 0.01 0.68 0.15 54 1001.4
20260504213029 54 271 7.0 17.0 0.01 0.68 0.15 54 1001.3
20260504211529 54 93 6.0 22.0 0.01 0.68 0.15 57 1001.3
20260504210027 55 291 9.0 30.0 0.01 0.68 0.15 53 1001.2
20260504204524 55 257 9.0 22.0 0.00 0.69 0.14 54 1001.1
20260504203025 53 214 9.0 28.0 0.00 0.69 0.14 60 1000.8
20260504201518 53 238 7.0 21.0 0.00 0.69 0.14 64 1000.4
20260504200015 53 263 9.0 23.0 0.00 0.69 0.14 65 1000.0
20260504194525 53 302 8.0 20.0 0.00 0.71 0.14 67 999.6
20260504193015 54 215 6.0 26.0 0.00 0.71 0.14 70 999.0
20260504191506 53 309 5.0 16.0 0.00 0.71 0.14 73 999.2
20260504190002 51 253 5.0 17.0 0.00 0.74 0.14 77 998.9
20260504184600 49 227 7.0 20.0 0.00 0.74 0.14 80 998.9
20260504183056 48 319 9.0 24.0 0.00 0.74 0.14 81 998.6
20260504181557 47 304 8.0 24.0 0.00 0.74 0.14 84 998.7
20260504180133 46 254 5.0 14.0 0.00 0.74 0.14 86 998.5
20260504174523 46 268 6.0 16.0 0.00 0.74 0.14 87 998.5
20260504120110 40 240 7.0 16.0 0.00 0.72 0.12 92 987.5
20260504081510 38 286 10.0 22.0 0.02 0.71 0.11 96 977.4
20260504070103 39 201 8.0 21.0 0.02 0.69 0.09 97 976.2